Simultaneous Nadir Overpasses (SNOs) Predictions

Prediction of SNOs between GOES-14 and AQUA Satellite Orbit:

Table of predicted SNOs for the next 14.0 days since TLE Epoch: 1/14/2023
Index Date Time (GOES-14) GOES-14 Lat,Lon AQUA Lat,Lon Distance(km) Time Diff (sec)
1 01/14/2023 08:30:38 -0.07,-104.59 -0.56,-102.12 279.69 80
2 01/14/2023 20:54:27 0.07,-104.20 -0.58,-107.24 345.18 80
3 01/16/2023 20:38:40 0.06,-104.22 0.07,-104.04 20.01 80
4 01/18/2023 20:25:33 0.05,-104.23 0.77,-100.84 384.58 80
5 01/19/2023 08:46:36 -0.05,-104.62 0.21,-105.96 152.35 80
6 01/21/2023 08:36:07 -0.05,-104.62 -0.42,-102.75 212.47 80
7 01/21/2023 20:57:15 0.05,-104.24 -0.74,-107.86 411.75 80
8 01/23/2023 20:44:06 0.04,-104.25 -0.05,-104.65 46.37 80
9 01/25/2023 20:28:16 0.04,-104.26 0.62,-101.44 319.78 80
10 01/26/2023 08:49:17 -0.04,-104.64 0.38,-106.55 217.39 80
